EHI
0 0 0 0 0 0 0 0 0 0 0 0 0 0 0 0 0 0 1 2 3 3 3 2 1 0 0 0 0 0 0 0 0 0 0 0 1 1 2 3 3 1 0 0
0 0 0 0 0 0 0 0 0 0 0 0 0 0 0 0 0 0 1 2 3 3 3 2 1 0 0 0 0 0 0 0 0 1 1 1 0 1 3 4 4 2 1 0
0 0 0 0 0 0 0 0 0 0 0 0 0 0 0 0 0 0 0 1 2 3 3 2 0 0 0 0 0 0 0 0 1 2 3 3 2 3 4 5 5 4 2 1
0 0 0 0 0 0 0 0 0 0 0 0 0 0 0 0 0 0 0 1 1 2 3 2 0 0 0 0 0 0 0 0 1 3 4 5 5 6 6 5 5 5 4 3
0 0 0 0 0 0 0 0 0 0 0 0 0 0 0 0 0 0 1 1 1 1 2 1 0 0 0 0 0 0 0 1 3 5 6 6 6 6 6 5 5 5 4 4
0 0 0 0 0 0 0 0 0 0 0 0 0 0 0 0 0 0 1 2 1 0 0 0 0 0 1 0 0 0 0 1 4 7 7 6 5 5 6 7 5 5 5 5
0 0 0 0 0 0 0 0 0 0 0 0 0 0 0 0 0 0 1 2 2 1 0 1 1 0 0 0 0 0 1 1 4 8 8 7 5 5 7 8 7 5 5 6
0 0 0 0 0 0 0 0 0 0 0 0 0 0 0 0 0 0 0 1 1 1 0 1 1 0 0 0 0 1 2 3 5 8 9 7 6 6 7 7 6 5 5 6
0 0 0 0 0 0 0 0 0 0 0 0 0 0 0 0 0 0 0 0 0 0 0 1 1 0 0 0 1 2 4 4 5 7 8 7 6 5 6 5 4 4 4 4
0 0 0 0 0 0 0 0 0 0 0 0 0 0 0 0 0 0 0 0 0 0 0 0 0 0 0 0 1 2 4 4 4 5 6 5 3 2 3 3 3 3 3 3
0 0 0 0 0 0 0 0 0 0 0 0 0 0 0 0 0 0 0 0 0 0 0 0 0 0 0 0 1 3 3 4 4 4 4 3 1 1 1 2 3 3 3 3
0 0 0 0 0 0 0 0 0 0 0 0 0 0 0 0 0 0 0 0 0 0 0 0 0 0 0 1 2 3 3 3 3 4 4 3 1 0 1 1 1 1 2 2
0 0 0 0 0 0 0 0 0 0 0 0 0 0 0 0 0 0 0 0 0 0 0 0 0 0 0 1 2 3 3 3 4 5 5 3 1 0 0 0 0 0 1 1
0 0 0 0 0 0 0 0 0 0 0 0 0 0 0 0 0 0 0 0 0 0 0 0 0 0 0 0 1 3 3 3 3 4 4 2 1 0 0 0 0 0 0 0
0 0 0 0 0 0 0 0 0 0 0 0 0 0 0 0 0 0 0 0 0 0 0 0 0 0 0 0 1 3 3 2 2 2 1 1 0 0 0 0 0 0 0 0
0 0 0 0 0 0 0 0 0 0 0 0 0 0 0 0 0 0 0 0 0 0 0 0 0 0 0 1 2 3 2 1 0 0 0 0 0 0 0 0 0 0 0 0
0 0 0 0 0 0 0 0 0 0 0 0 0 0 0 0 0 0 0 0 0 0 0 0 0 0 0 1 2 2 1 0 0 0 0 0 0 0 0 0 0 0 0 0
0 0 0 0 0 0 0 0 0 0 0 0 0 0 0 0 0 0 0 0 0 0 0 0 0 0 0 0 1 1 0 0 0 0 0 0 0 0 0 0 0 0 0 0
0 0 0 0 0 0 0 0 0 0 0 0 0 0 0 0 0 0 0 0 0 0 0 0 0 0 0 0 0 0 0 0 0 0 0 0 0 0 0 0 0 0 0 0
0 0 0 0 0 0 0 0 0 0 0 0 0 0 0 0 0 0 0 0 0 0 0 0 0 0 0 0 0 0 0 0 0 0 0 0 0 0 0 0 0 0 0 0
0 0 0 0 0 0 0 0 0 0 0 0 0 0 0 0 0 0 0 0 0 0 0 0 0 0 0 0 0 0 0 0 0 0 0 0 0 0 0 0 0 0 0 0
0 0 0 0 0 0 0 0 0 0 0 0 0 0 0 0 0 0 0 0 0 0 0 0 0 0 0 0 0 0 0 0 0 0 0 0 0 0 0 0 0 0 0 0
0 0 0 0 0 0 0 0 0 0 0 0 0 0 0 0 0 0 0 0 0 0 0 0 0 0 0 0 0 0 0 0 0 0 0 0 0 0 0 0 0 0 0 0
0 0 0 0 0 0 0 0 0 0 0 0 0 0 0 0 0 0 0 0 0 0 0 0 0 0 0 0 0 0 0 0 0 0 0 0 0 0 0 0 0 0 0 0
0 0 0 0 0 0 0 0 0 0 0 0 0 0 0 0 0 0 0 0 0 0 0 0 0 0 0 0 0 0 0 0 0 0 0 0 0 0 0 0 0 0 0 0
0 0 0 0 0 0 0 0 0 0 0 0 0 0 0 0 0 0 0 0 0 0 0 0 0 0 0 0 0 0 0 0 0 0 0 0 0 0 0 0 0 0 0 0
0 0 0 0 0 0 0 0 0 0 0 0 0 0 0 0 0 0 0 0 0 0 0 0 0 0 0 0 0 0 0 0 0 0 0 0 0 0 0 0 0 0 0 0
Wind_Speed
8 9 8 8 8 8 9 9 8 7 5 4 2 2 2 1 1 1 1 1 0 1 1 1 2 2 2 2 3 3 3 3 3 3 2 2 2 2 2 2 2 2 1 1
10 9 11 12 11 10 11 10 9 8 6 3 3 3 3 3 2 2 2 1 1 2 2 2 2 2 2 2 2 3 3 3 3 3 2 3 3 3 2 2 2 2 2 2
8 7 10 11 8 8 8 7 8 8 3 2 3 3 3 3 2 2 3 2 2 3 3 3 3 3 3 3 3 3 4 4 3 3 3 3 3 2 2 2 2 2 2 2
6 8 10 2 1 2 4 3 3 3 2 3 3 3 2 2 2 3 3 3 3 3 3 4 4 3 4 3 3 3 4 4 4 4 3 2 2 3 3 2 2 2 2 3
5 7 7 3 2 3 4 4 2 2 2 3 3 3 1 4 4 4 3 3 3 3 4 4 4 3 4 4 3 4 4 4 4 4 4 3 3 3 3 3 3 3 3 3
6 7 6 1 1 2 4 4 1 1 2 2 3 3 2 4 5 5 4 4 4 4 4 3 3 3 4 4 4 4 4 4 4 4 4 4 4 3 2 3 3 3 4 4
9 8 4 1 1 2 3 1 2 2 2 3 3 3 3 5 4 5 5 5 5 4 4 3 3 3 4 4 4 3 3 3 3 4 4 4 4 3 3 3 3 3 4 4
6 7 4 1 1 1 1 3 3 3 3 3 4 5 4 4 4 4 5 5 5 4 4 3 3 3 4 5 4 2 2 2 3 3 4 3 3 3 3 3 4 3 3 3
2 2 1 1 1 2 3 3 4 4 4 4 4 4 5 4 4 5 5 5 5 4 4 4 3 4 5 5 3 2 1 2 3 3 3 4 4 4 3 3 3 3 3 3
5 3 3 3 3 3 4 4 4 4 4 5 5 5 5 5 5 5 5 5 5 5 5 5 4 4 5 4 3 2 2 2 3 3 3 3 3 3 3 4 4 3 4 4
6 4 3 3 3 4 5 5 5 5 5 5 5 5 5 5 5 5 5 5 5 5 5 5 5 5 4 4 4 3 3 3 3 3 3 3 3 3 4 4 5 5 4 4
4 4 4 4 4 5 5 5 5 5 6 5 5 6 6 5 5 5 5 5 5 6 6 6 6 6 5 4 4 3 3 3 2 2 2 3 3 2 3 4 5 5 4 3
6 6 5 5 5 6 6 6 5 5 6 6 6 5 6 5 5 5 5 6 6 6 6 6 6 6 6 5 5 4 4 3 2 2 2 3 3 4 3 2 3 5 5 5
5 6 6 5 5 6 7 7 6 6 6 6 6 5 5 5 5 6 6 6 5 6 6 7 7 7 6 6 6 4 3 3 2 2 2 2 3 3 3 4 3 2 4 6
5 6 5 5 6 6 6 6 6 6 6 6 6 5 5 5 6 6 6 6 5 6 6 7 7 7 7 6 5 4 3 2 2 2 2 2 2 3 3 3 3 3 2 2
4 5 5 5 6 7 7 7 7 7 7 7 6 6 5 5 6 6 6 5 6 6 7 7 7 7 7 6 5 3 2 3 2 2 2 2 2 2 3 3 3 3 3 3
5 5 5 6 6 7 7 7 7 7 7 7 6 6 6 5 6 6 6 6 6 6 6 7 7 7 6 5 4 2 2 2 3 3 2 2 2 2 3 3 3 2 2 3
5 5 5 6 6 7 7 7 6 6 6 6 6 6 5 5 6 6 6 6 6 6 6 6 6 7 6 4 3 2 1 2 2 2 2 2 2 2 2 2 3 3 2 2
5 5 4 5 6 6 6 7 7 6 6 6 6 6 6 6 6 6 5 5 6 6 6 5 7 6 5 4 3 1 2 2 2 2 2 2 3 2 2 2 3 3 3 3
4 4 4 5 5 6 6 6 7 6 5 5 5 6 6 6 6 5 5 5 5 5 5 5 6 5 3 2 3 1 2 2 2 2 1 1 2 2 2 3 3 3 3 3
4 4 4 4 5 6 6 6 6 6 5 5 5 6 6 6 5 5 4 5 5 5 4 5 4 3 2 2 3 2 2 2 2 2 2 2 2 2 2 3 3 3 3 3
3 4 4 5 5 6 6 6 6 6 5 5 5 5 6 6 5 5 5 4 4 5 4 3 2 3 4 4 2 2 2 2 2 2 2 2 2 2 2 2 2 2 3 3
3 4 4 4 5 6 6 5 6 6 5 5 5 5 6 5 4 4 5 4 3 6 5 3 3 4 5 3 2 2 3 2 2 2 2 2 2 2 2 2 2 2 2 2
4 4 4 4 5 5 6 6 5 5 5 5 4 5 5 4 4 3 3 5 6 5 3 3 3 4 4 2 2 2 2 2 1 1 2 2 2 2 2 1 2 2 2 2
4 4 4 4 4 4 4 5 5 5 5 4 5 5 4 3 3 4 3 3 4 4 2 2 3 3 2 2 1 1 1 1 1 1 1 1 1 1 1 1 2 2 2 2
3 3 3 4 3 3 3 3 3 3 3 4 4 3 3 3 3 3 3 3 4 4 3 2 2 2 2 2 2 1 1 1 1 1 1 1 1 1 1 1 2 2 2 2
3 3 2 2 3 3 3 3 3 3 3 3 4 4 4 3 3 4 4 3 3 3 2 2 2 2 2 2 2 2 1 1 1 1 1 1 1 1 1 1 2 2 2 2
Wind_Direction
274 285 282 266 257 252 254 258 264 273 271 282 329 340 334 349 34 8 344 337 326 289 259 247 238 236 225 208 203 204 204 216 217 207 198 207 218 227 212 204 187 196 186 167
267 262 267 266 255 247 247 254 260 269 269 296 319 318 325 329 345 333 318 326 337 305 294 280 272 261 261 222 211 205 206 219 211 207 199 203 216 215 204 208 185 184 173 142
270 257 266 254 248 242 241 242 253 262 278 322 310 323 331 338 351 339 334 350 337 315 299 287 275 270 260 252 225 211 215 220 206 202 208 211 212 208 198 196 179 175 171 159
272 265 249 224 353 257 253 263 283 296 313 313 331 334 359 24 26 360 352 350 331 308 293 290 279 273 267 246 235 222 218 216 208 198 194 198 205 202 202 195 176 176 170 161
259 262 259 234 251 260 264 263 282 291 318 340 354 320 30 34 15 4 2 343 325 310 297 295 291 281 279 262 243 234 228 213 203 194 188 193 208 213 209 191 179 176 174 173
255 258 260 187 71 309 273 245 0 315 320 328 331 304 342 15 4 354 351 339 327 318 309 302 296 287 276 266 255 243 234 221 205 191 188 198 208 219 209 190 187 178 176 181
244 252 259 297 327 297 255 300 31 6 353 342 328 330 344 351 353 350 343 334 329 326 318 307 304 296 289 281 270 262 237 217 208 190 192 201 207 212 201 191 187 185 179 180
236 244 239 78 337 273 357 15 5 355 352 350 341 336 338 343 345 339 333 329 327 328 325 324 317 303 292 284 276 277 257 211 201 193 198 199 192 208 200 183 186 187 185 188
250 257 22 19 344 13 10 348 348 352 356 346 325 323 328 330 330 329 326 326 326 323 318 322 325 314 298 292 293 287 272 214 203 205 203 185 187 201 197 185 189 194 193 198
263 254 296 326 344 354 347 337 341 343 335 328 322 322 322 320 319 317 317 320 320 318 315 315 316 310 310 308 301 281 265 237 215 205 198 192 193 192 191 190 193 197 199 201
265 274 291 296 307 321 325 326 328 328 323 321 320 317 316 314 315 315 315 314 314 311 302 304 311 312 315 316 307 277 259 245 230 219 199 198 198 199 194 196 194 195 203 198
271 292 286 289 310 313 309 311 316 317 316 316 311 308 310 309 312 314 312 311 311 309 311 311 311 309 308 304 297 285 276 254 230 220 206 200 193 194 200 192 190 193 194 201
291 311 310 303 310 313 308 306 307 306 305 307 303 300 304 305 306 307 304 302 305 306 307 305 302 302 304 302 291 275 270 267 251 222 210 208 206 197 190 195 200 206 204 206
299 298 294 299 303 305 301 299 301 301 301 299 300 301 298 298 299 298 298 298 302 304 302 302 301 298 296 293 284 273 265 262 258 234 216 216 218 203 189 188 194 213 215 213
282 289 289 296 295 295 297 298 298 297 299 300 299 295 293 293 293 293 296 301 302 299 297 297 299 300 300 291 283 275 267 246 233 232 225 221 222 196 188 193 191 191 181 198
279 285 287 289 294 296 298 298 296 296 299 300 302 300 298 297 297 298 297 296 295 293 294 296 296 297 299 296 284 263 241 241 244 231 227 211 207 192 186 185 189 189 195 194
277 278 283 289 293 297 298 296 294 295 298 300 302 303 301 299 297 296 297 297 293 292 293 293 295 297 298 297 288 255 226 227 239 233 226 223 206 195 194 188 193 197 197 188
280 282 280 287 292 296 298 302 301 301 300 301 303 300 296 293 291 291 293 296 297 295 291 291 296 299 299 300 283 258 235 223 231 228 221 213 210 207 200 195 193 191 196 195
275 283 293 300 303 303 306 307 306 299 299 304 305 302 299 295 292 290 293 293 292 291 290 294 300 293 289 297 299 249 230 232 240 240 233 214 215 213 205 200 200 197 196 194
283 290 301 309 311 309 308 309 310 303 301 303 305 305 302 300 299 295 292 287 281 285 293 298 291 279 277 288 301 258 235 228 234 234 230 229 225 217 214 207 203 201 203 205
308 313 312 311 310 309 309 310 309 308 311 313 308 304 303 303 303 301 296 293 295 302 306 302 291 288 300 309 287 257 247 238 234 228 226 224 230 233 229 217 205 204 206 208
307 309 311 313 311 310 314 315 312 312 312 311 310 311 310 308 307 305 297 292 301 312 314 299 293 308 315 307 265 247 243 236 227 225 228 231 231 235 237 235 222 215 212 208
293 297 300 305 309 313 317 316 317 316 312 311 310 308 308 308 304 301 305 308 309 311 312 302 310 320 318 302 264 245 235 231 226 220 219 223 228 234 233 231 225 218 213 206
293 300 306 308 310 312 315 316 317 316 316 315 310 308 309 309 310 311 305 313 320 315 311 307 312 319 316 296 267 244 240 233 221 220 222 228 233 243 242 234 226 219 214 212
300 307 305 305 307 308 310 315 319 323 325 322 320 323 320 315 312 318 320 318 323 325 319 320 332 335 324 301 277 245 256 255 237 232 230 229 233 239 236 237 231 228 223 217
294 293 294 300 309 311 313 318 317 318 320 319 324 330 330 332 330 331 336 340 341 341 350 354 345 345 336 339 341 332 308 285 265 240 234 240 243 245 234 239 248 239 230 224
297 302 310 314 315 316 314 312 312 315 314 314 323 331 335 340 340 344 345 345 347 350 355 353 352 350 348 353 358 354 342 330 319 308 285 262 249 247 245 250 249 249 248 242